TimePDT,TemperatureF,Dew PointF,Humidity,Sea Level PressureIn,VisibilityMPH,Wind Direction,Wind SpeedMPH,Gust SpeedMPH,PrecipitationIn,Events,Conditions,WindDirDegrees,DateUTC
12:53 AM,59.0,50.0,72,29.70,10.0,West,4.6,-,N/A,,Clear,260,2013-06-03 07:53:00
1:53 AM,57.0,50.0,77,29.71,10.0,WNW,6.9,-,N/A,,Clear,290,2013-06-03 08:53:00
2:53 AM,55.9,48.9,77,29.71,10.0,Calm,Calm,-,N/A,,Clear,0,2013-06-03 09:53:00
3:53 AM,55.0,48.9,80,29.71,10.0,Calm,Calm,-,N/A,,Clear,0,2013-06-03 10:53:00
4:53 AM,55.9,48.9,77,29.73,10.0,Calm,Calm,-,N/A,,Clear,0,2013-06-03 11:53:00
5:53 AM,55.0,48.9,80,29.74,10.0,SW,3.5,-,N/A,,Clear,220,2013-06-03 12:53:00
6:53 AM,55.9,48.9,77,29.76,10.0,SSE,5.8,-,N/A,,Clear,150,2013-06-03 13:53:00
7:53 AM,59.0,50.0,72,29.76,10.0,WSW,5.8,-,N/A,,Clear,250,2013-06-03 14:53:00
8:53 AM,63.0,50.0,63,29.77,10.0,SSW,5.8,-,N/A,,Clear,200,2013-06-03 15:53:00
9:53 AM,68.0,50.0,52,29.77,10.0,Calm,Calm,-,N/A,,Clear,0,2013-06-03 16:53:00
10:53 AM,72.0,50.0,46,29.77,10.0,West,3.5,-,N/A,,Clear,270,2013-06-03 17:53:00
11:53 AM,77.0,51.1,40,29.76,10.0,SSW,5.8,-,N/A,,Clear,200,2013-06-03 18:53:00
12:53 PM,79.0,52.0,39,29.76,10.0,NW,15.0,-,N/A,,Clear,310,2013-06-03 19:53:00
1:53 PM,80.1,52.0,38,29.76,10.0,NW,16.1,20.7,N/A,,Clear,310,2013-06-03 20:53:00
2:53 PM,81.0,51.1,35,29.76,10.0,WNW,15.0,-,N/A,,Clear,290,2013-06-03 21:53:00
3:53 PM,80.1,51.1,36,29.75,10.0,West,18.4,-,N/A,,Clear,280,2013-06-03 22:53:00
4:53 PM,75.0,51.1,43,29.76,10.0,West,19.6,-,N/A,,Clear,280,2013-06-03 23:53:00
5:53 PM,73.0,50.0,44,29.76,10.0,West,19.6,-,N/A,,Clear,280,2013-06-04 00:53:00
6:53 PM,69.1,50.0,51,29.78,10.0,West,16.1,24.2,N/A,,Clear,280,2013-06-04 01:53:00
7:53 PM,64.0,50.0,60,29.81,10.0,West,13.8,-,N/A,,Clear,280,2013-06-04 02:53:00
8:53 PM,60.1,50.0,69,29.82,10.0,West,12.7,-,N/A,,Clear,280,2013-06-04 03:53:00
9:53 PM,59.0,50.0,72,29.83,10.0,WNW,12.7,-,N/A,,Clear,290,2013-06-04 04:53:00
10:53 PM,57.0,50.0,77,29.83,10.0,WNW,10.4,-,N/A,,Clear,290,2013-06-04 05:53:00
11:53 PM,55.9,50.0,80,29.84,10.0,West,9.2,-,N/A,,Clear,280,2013-06-04 06:53:00